Vorticity
7 9 10 11 12 12 12 12 12 12 12 11 11 11 10 10 9 9 8 7 6 5 6 6 7 7 7 8 8 9 7 7 7 8 7 7 7 7 7 8 8 8 7 6 5 5 8 7 4 2 1 4 7 5 6 13 20 17 9 8 8 4 3 6 9 8 6 6 7 5 5 5 1 -0 8 14 5 -1 3 3 1 3 5 5 5 6 5 5
11 12 12 13 13 13 13 12 12 11 11 11 11 11 10 9 7 7 6 5 6 7 7 8 8 9 8 8 9 9 7 7 8 7 7 6 6 7 7 7 7 8 8 7 7 5 6 8 6 4 2 2 5 7 6 6 13 20 16 10 9 8 2 2 9 9 5 5 7 6 4 4 5 1 -3 7 14 5 -1 1 2 2 3 5 6 8 8 8
11 11 10 10 10 11 11 10 10 10 11 10 10 9 8 7 5 5 6 7 9 9 10 10 10 10 9 9 8 8 7 7 7 7 7 6 6 6 6 6 6 6 7 7 7 6 6 7 7 5 4 3 3 4 7 6 6 13 19 16 10 10 5 -1 5 10 6 4 5 4 5 5 3 6 -0 -4 7 13 7 1 0 3 5 4 5 8 10 9
9 9 9 10 10 10 10 11 11 11 10 9 8 7 6 5 6 8 10 11 11 11 11 10 9 9 8 8 7 6 6 6 5 6 6 6 6 5 5 5 5 5 5 6 6 6 7 7 6 5 5 5 4 3 5 8 7 7 13 20 18 11 8 2 -2 8 11 4 5 3 3 8 3 4 7 -3 -5 6 11 6 1 1 3 5 2 1 3 4
9 9 10 10 10 10 10 10 10 10 9 8 8 7 7 8 9 10 10 9 9 9 9 9 8 8 8 7 7 7 7 7 6 6 6 7 7 7 6 6 6 6 6 6 7 7 7 7 7 6 6 5 5 4 4 6 7 7 7 16 22 16 10 5 -3 2 12 7 4 4 -1 4 7 3 4 4 -3 -4 1 5 4 2 -0 1 0 -2 -0 1
12 11 11 11 11 10 9 9 9 8 8 8 9 9 9 10 10 9 9 9 8 8 8 8 8 7 8 8 8 8 8 10 10 9 9 9 10 10 10 9 9 9 9 9 9 9 9 9 8 7 7 7 7 5 6 6 6 7 7 10 18 20 13 8 1 -2 9 11 5 5 3 -0 2 0 -1 6 6 -4 -3 7 8 3 0 -0 2 3 3 2
14 13 12 11 10 10 9 9 9 9 10 10 11 11 11 11 11 10 10 9 9 8 9 9 9 10 9 10 10 10 9 10 11 11 10 10 10 10 10 11 11 11 11 11 11 10 9 10 9 9 7 6 8 7 6 6 6 6 7 8 12 20 18 10 5 -1 2 12 9 6 7 3 3 5 2 0 5 3 -0 7 11 9 5 -1 0 3 2 5
15 14 13 11 10 10 10 10 12 12 13 13 13 12 11 11 10 10 10 9 9 9 10 10 11 10 10 11 10 10 11 11 11 11 10 10 9 9 8 9 9 9 9 10 10 10 9 9 9 8 7 6 8 8 6 6 7 6 6 8 9 14 20 15 7 2 0 8 11 5 4 8 10 12 15 8 2 7 5 -1 1 7 13 8 2 5 5 5
14 13 13 13 12 12 12 13 13 13 12 12 11 10 9 9 8 9 9 9 10 10 10 11 10 10 11 12 11 12 12 11 12 13 14 13 13 13 11 10 10 8 8 9 9 9 8 8 9 9 6 6 6 7 7 7 7 8 6 7 8 9 17 19 10 4 1 4 12 8 -2 2 9 6 9 21 11 1 5 2 -1 0 9 15 5 4 8 5
14 14 14 14 15 15 15 13 12 11 9 8 8 8 8 8 8 9 10 10 10 10 10 11 12 12 12 14 14 13 12 14 17 19 19 18 19 18 16 15 15 13 12 11 10 10 9 8 8 9 7 6 6 6 6 7 8 9 8 6 8 7 13 20 14 7 2 1 11 13 1 -8 6 6 -8 12 24 6 -0 2 6 4 0 10 11 5 7 6
16 16 15 15 15 14 12 10 9 8 7 7 8 8 9 10 11 10 9 9 9 10 11 12 13 15 17 17 17 18 21 24 24 24 24 23 24 25 26 25 25 24 21 20 19 16 14 12 9 9 9 7 6 6 5 7 7 9 10 8 9 8 9 17 16 11 3 0 7 13 9 -6 -2 11 -6 -7 18 16 4 -0 3 6 0 1 8 5 4 7
17 15 15 15 12 10 9 8 7 8 9 10 10 11 11 11 11 11 14 17 21 24 26 28 29 30 29 28 29 32 33 31 29 27 25 26 28 30 33 34 35 36 34 34 32 30 28 24 20 15 13 10 8 8 7 7 7 8 10 9 10 9 8 14 17 14 7 1 5 9 12 6 -4 6 8 -1 10 17 8 3 0 -1 2 -1 -3 -3 -3 1
15 15 13 11 10 9 8 8 11 12 12 12 12 12 11 12 16 21 25 27 29 31 33 37 39 36 33 31 29 29 26 24 24 23 24 27 29 29 30 32 34 34 35 37 36 38 39 38 36 29 22 19 15 11 9 8 9 9 9 10 11 10 7 10 14 13 11 5 4 7 7 9 1 -6 8 11 8 15 12 8 7 1 2 1 -3 -2 -2 2
14 13 11 10 10 9 10 13 12 11 11 10 8 7 9 17 24 26 27 28 28 27 27 27 26 25 22 18 15 15 17 19 21 22 25 27 23 21 22 23 24 23 24 26 28 30 32 35 39 39 35 30 24 19 15 13 12 13 12 12 11 8 5 10 14 9 11 13 6 6 8 9 4 -12 -1 15 8 8 11 9 11 11 12 7 3 6 7 7
14 13 12 11 10 11 12 11 9 10 8 4 6 15 25 31 33 36 40 44 42 35 30 24 20 18 13 10 13 17 21 23 24 25 26 22 16 15 17 17 16 16 17 16 18 19 20 23 28 36 40 38 34 28 25 19 15 17 13 10 8 5 6 11 17 9 2 12 10 4 8 12 8 -12 -13 12 14 3 3 5 7 7 14 14 8 10 12 5
15 14 13 12 12 12 10 9 10 8 5 12 25 32 32 28 25 26 30 34 34 31 27 22 19 18 14 15 20 24 26 27 26 25 23 19 16 15 15 16 16 14 13 11 13 13 14 18 22 29 36 39 40 35 33 28 21 20 14 10 10 7 10 10 14 15 1 5 13 5 5 12 13 -5 -17 3 18 9 -0 2 9 6 6 13 11 7 3 -1
15 15 13 13 13 11 11 11 8 8 20 32 33 25 21 19 14 8 7 11 13 15 15 14 14 13 14 18 20 23 27 26 24 22 19 18 18 16 13 14 15 11 8 8 9 9 10 15 20 26 32 36 38 37 34 29 21 19 15 12 12 9 10 9 10 15 5 0 10 10 6 9 16 6 -15 -8 14 15 2 -2 11 15 7 6 3 -0 1 6
16 15 14 13 12 11 12 10 12 26 35 29 18 14 14 12 8 4 4 5 6 10 10 10 11 8 9 13 14 21 25 23 24 23 18 16 18 18 14 12 12 8 7 7 5 6 6 10 15 20 28 32 33 33 30 27 23 22 21 12 12 15 14 14 12 12 7 -2 3 13 12 6 14 15 -10 -14 7 13 4 -3 1 9 8 6 -1 2 13 10
16 15 14 12 11 12 11 13 28 35 25 16 13 11 6 4 4 1 3 3 3 10 11 11 14 10 9 10 11 16 20 22 25 24 20 16 18 20 17 12 11 9 7 7 4 4 5 6 10 14 24 30 31 35 33 32 29 29 30 16 11 19 19 19 15 13 10 0 -1 9 16 11 9 17 0 -15 -0 6 4 -1 -6 1 7 12 16 17 19 8
17 15 13 11 12 11 13 26 33 22 16 15 8 3 2 10 12 7 9 7 1 6 9 11 14 12 11 10 12 12 15 19 23 29 27 18 15 20 24 19 13 11 7 6 3 4 5 4 7 14 23 27 28 35 37 32 26 25 32 21 11 13 13 19 18 16 12 2 3 5 9 16 9 15 11 -9 -0 10 8 -0 -10 1 6 -2 4 6 7 12
18 15 12 11 11 11 22 33 23 13 19 12 -0 2 5 11 16 17 20 15 8 6 5 10 14 13 13 12 14 13 13 14 15 26 33 29 20 14 20 23 18 14 8 7 7 8 7 5 8 16 22 22 24 31 33 29 20 20 29 20 13 11 5 11 15 17 14 -1 7 8 2 14 12 14 14 -11 -4 17 15 8 -7 -6 6 -8 -19 -16 -6 10
19 16 13 12 9 15 29 27 13 16 17 2 -2 6 5 8 14 17 21 20 20 13 2 7 12 13 16 14 14 15 15 16 11 11 20 32 33 22 16 15 13 12 9 9 11 11 8 7 13 18 20 18 23 30 29 28 17 17 32 18 9 17 10 6 7 15 19 0 2 11 2 10 12 13 16 -12 -20 8 13 11 9 -1 1 -0 -5 1 4 14
20 17 14 11 9 19 32 20 12 19 12 1 1 3 6 9 9 12 15 16 21 19 10 9 9 11 17 14 13 14 13 17 18 11 7 12 22 28 25 18 13 11 12 11 10 12 10 13 19 21 20 17 24 30 27 26 12 13 37 20 -3 14 23 16 5 7 22 12 2 7 2 7 12 5 13 0 -19 8 15 -3 8 13 5 7 11 20 17 6
20 19 16 12 9 22 32 16 13 18 9 5 1 0 6 6 6 12 13 12 16 20 17 12 11 11 13 14 16 15 7 7 17 18 15 9 6 13 17 19 20 16 16 15 14 17 17 21 24 23 22 17 23 31 27 24 8 11 41 23 -11 0 21 27 16 0 12 23 13 7 3 5 14 7 7 6 -16 0 23 5 5 11 2 6 6 9 15 2
20 20 18 13 8 23 32 17 13 16 8 6 1 -1 6 4 6 12 14 14 14 17 17 13 14 10 11 17 17 17 12 6 9 11 16 17 11 11 10 9 13 15 17 14 16 23 25 27 24 22 22 17 26 30 27 23 -0 9 46 28 -7 -7 6 25 31 9 -2 19 24 8 6 8 10 9 7 8 -12 -16 10 12 12 14 -2 3 10 5 10 7
18 19 19 16 8 20 34 20 12 16 7 4 1 -2 4 8 7 10 14 13 12 18 15 13 17 11 10 14 13 20 20 11 9 7 10 16 18 17 15 13 10 11 16 13 14 25 31 28 20 24 21 15 29 29 27 22 -13 2 50 32 2 -4 -7 11 34 23 -3 9 30 13 4 12 12 9 5 5 -0 -5 4 2 11 29 19 16 23 15 14 13
15 18 18 18 10 15 33 27 13 13 8 3 2 -2 1 8 8 9 13 12 16 22 16 15 19 14 13 13 10 14 14 12 18 15 5 7 16 17 14 21 19 10 14 15 11 19 30 27 20 25 20 17 33 27 25 22 -16 -1 45 33 13 -2 -19 4 30 26 4 1 29 31 10 9 12 10 4 -3 -0 5 8 4 2 3 -0 6 11 7 18 23
11 16 17 19 14 10 26 34 20 10 9 6 3 1 0 6 9 10 14 15 17 20 18 18 18 12 13 14 11 11 12 17 25 23 12 7 16 17 8 17 26 14 11 14 6 8 22 27 21 20 21 26 32 26 25 18 -9 4 34 30 26 2 -30 0 35 25 8 -5 8 31 24 17 17 11 9 0 -6 -4 -2 2 -1 -17 -23 -15 -15 -13 13 33
8 13 15 18 18 9 16 33 30 14 11 8 4 3 2 4 8 9 14 17 15 18 21 23 24 16 9 12 17 20 21 19 21 27 26 20 16 17 14 12 15 13 13 14 8 11 21 25 23 19 25 30 25 27 25 12 4 6 17 26 32 9 -34 -14 35 31 12 -2 -5 13 17 20 26 14 10 8 -5 -9 -4 1 -3 -9 -2 6 7 1 0 15
5 9 14 18 19 13 9 23 34 24 14 10 4 2 2 5 6 6 14 18 13 13 16 20 31 27 12 11 16 17 18 16 19 22 25 27 13 11 27 21 8 14 20 18 13 20 24 24 26 19 22 28 22 31 20 7 18 -1 -5 28 34 17 -17 -24 16 27 17 11 4 17 15 10 25 21 13 14 4 -4 -4 -1 -3 -4 3 8 23 26 5 3
4 5 11 16 18 17 10 13 29 31 21 12 7 3 3 6 4 1 12 21 13 7 9 10 22 33 22 11 10 9 10 14 19 18 24 33 8 -6 21 27 22 26 23 22 24 29 29 22 22 16 21 30 24 29 15 4 23 -3 -11 34 34 16 1 -16 -4 3 12 16 -1 19 37 18 15 17 15 14 10 13 9 -2 -3 2 0 -17 -17 -3 -3 -2
4 4 6 12 15 19 15 9 19 31 28 17 9 6 5 7 5 -2 7 24 19 7 8 4 9 28 25 9 7 8 8 12 17 16 25 36 14 -4 7 11 23 33 23 28 32 28 28 20 15 16 26 34 25 23 14 5 16 -3 -7 32 32 20 9 -7 -3 -3 9 15 -18 -11 29 36 26 21 25 20 4 14 23 11 -0 2 8 -6 -24 -20 -17 -18
4 4 4 8 11 16 18 13 13 24 33 24 11 9 8 5 5 1 1 17 21 12 11 8 6 23 28 12 6 8 9 11 16 14 17 31 29 19 18 14 24 33 28 35 29 15 22 20 18 26 32 33 26 17 8 7 14 -6 -8 21 25 26 22 -2 -6 -2 8 19 -5 -31 -22 4 21 22 33 38 19 14 22 20 12 12 20 14 -4 -7 -6 -8
4 4 3 4 7 11 16 17 13 14 30 32 15 11 11 5 3 3 -1 4 14 17 15 14 9 18 32 28 16 16 15 9 14 17 11 18 26 23 24 25 27 25 15 19 23 22 28 25 24 33 33 27 21 13 2 5 16 -1 -5 15 7 12 36 23 2 -2 -1 9 11 -9 -26 -20 -6 -0 11 22 19 17 21 23 18 16 25 26 16 11 11 14
5 4 4 3 3 7 10 16 16 9 20 31 23 17 15 8 4 4 2 -3 2 12 16 18 15 12 27 38 28 25 23 9 8 17 15 14 18 15 13 12 12 15 13 7 11 25 32 26 29 33 28 22 15 9 3 4 14 5 0 16 1 -6 28 40 26 15 0 -1 10 7 -1 -10 -22 -21 -9 -4 -1 -1 4 13 9 2 10 18 20 20 17 15
4 4 5 3 3 6 5 10 16 11 14 20 22 26 22 13 6 2 3 -1 -5 3 10 15 17 12 19 31 27 24 26 18 10 12 18 17 12 10 7 2 -4 2 19 18 7 20 29 22 31 32 20 18 13 7 7 6 11 7 4 19 7 -15 3 28 40 41 17 2 7 7 10 5 -12 -14 -11 -14 -7 -5 -8 -0 4 3 8 12 14 15 13 10
4 4 5 5 3 4 5 6 9 12 17 13 11 26 29 19 14 7 3 2 -3 -2 3 8 14 16 19 24 26 27 23 20 17 16 22 21 14 15 11 7 4 -3 10 23 17 23 28 20 29 32 18 14 9 4 7 8 12 8 6 22 17 -13 -16 -1 22 45 44 31 19 3 0 4 1 4 3 -8 -9 -6 -10 -9 -6 -2 4 9 12 10 6 6
3 4 4 5 5 4 5 5 3 9 16 10 6 20 27 23 21 15 7 3 2 1 -1 0 7 14 17 16 21 31 28 21 17 16 26 30 22 22 19 21 30 14 3 20 26 23 23 23 28 24 13 8 2 2 9 12 16 12 6 17 22 8 -4 -11 -13 -2 18 39 47 34 18 10 4 3 10 10 2 -1 -2 -3 -3 -2 -1 1 1 -1 -3 -1
3 4 3 5 6 5 6 4 3 8 10 7 9 15 19 21 23 21 15 8 3 4 1 -2 2 8 14 12 10 19 27 27 20 10 18 31 25 18 13 17 28 18 7 22 28 18 22 29 23 9 3 7 7 6 10 12 10 8 8 12 15 17 11 2 -6 -15 -16 -4 12 28 37 38 33 23 23 25 17 12 11 8 8 6 4 4 -3 -7 -3 -1
4 4 2 4 5 5 6 4 3 7 4 3 10 14 13 17 21 23 25 19 9 4 2 0 2 2 6 12 11 11 13 21 26 18 11 18 25 25 20 20 25 21 22 31 25 19 27 27 15 4 3 9 9 -2 -3 5 1 -3 9 13 17 29 26 14 10 3 -1 -5 -15 -10 2 12 20 18 17 21 20 19 18 15 14 11 9 10 5 -0 -0 1
4 4 2 3 5 4 5 5 4 5 3 3 7 9 11 13 16 18 23 27 22 13 5 1 2 3 2 5 10 13 13 13 19 26 23 19 22 27 29 34 39 32 26 26 19 17 25 21 12 9 6 4 0 -7 -4 7 3 1 11 4 -2 17 31 38 42 23 6 8 6 1 -3 -4 0 1 -0 6 10 12 14 13 16 16 14 13 10 8 4 1
4 4 2 3 4 4 5 4 4 4 4 5 4 4 8 10 12 15 16 21 26 24 18 9 2 2 2 2 2 4 10 13 12 16 24 26 24 23 21 23 27 25 21 20 18 17 18 14 8 6 5 1 -3 -2 2 6 6 8 11 -4 -22 -18 -8 9 39 46 30 23 21 19 17 15 15 13 12 12 9 8 10 11 12 14 14 12 9 9 8 6
3 3 3 3 3 4 4 3 4 6 5 5 5 4 5 6 7 12 13 14 18 23 25 22 15 8 1 0 1 -2 0 8 13 13 14 17 20 21 21 19 18 17 17 17 17 18 18 14 8 3 3 0 2 4 -5 -3 11 9 0 -5 -13 -13 -11 -14 -0 21 26 24 22 21 22 23 25 26 27 27 24 21 21 21 20 20 19 18 16 13 11 10
3 3 3 4 3 3 4 2 3 6 5 5 5 4 5 5 4 6 10 11 12 15 19 23 26 23 12 3 -1 -2 -1 0 4 9 12 12 14 15 17 21 22 22 20 17 16 15 15 12 8 8 8 -0 2 8 -5 -11 6 8 -2 -5 -9 -5 8 10 10 13 10 7 7 6 4 1 3 7 7 7 7 7 7 8 9 12 14 16 16 16 15 12
5 4 3 3 4 2 3 3 2 4 5 5 5 5 5 5 5 4 5 7 9 10 12 14 19 26 26 20 10 3 1 -1 -2 1 5 8 11 13 14 14 16 18 17 16 18 16 13 9 4 10 20 11 2 8 5 -5 -1 5 4 -0 -2 6 13 13 15 17 14 13 12 12 13 10 7 5 1 -0 -0 -1 -0 -1 -1 1 3 6 8 9 9 8
5 5 4 3 4 3 2 3 3 3 4 5 5 5 5 4 5 5 4 5 5 7 10 10 11 16 21 24 25 20 12 5 0 -2 -1 1 2 5 10 11 13 15 14 12 13 12 11 12 11 18 30 27 15 11 9 3 0 4 7 3 2 9 8 1 1 4 6 8 8 8 12 12 14 15 13 12 12 11 11 10 9 9 6 7 8 8 9 8
6 6 5 4 4 4 3 2 3 3 3 4 4 5 6 4 4 5 5 5 4 5 7 7 8 11 13 15 19 25 26 21 15 8 2 -0 -2 -5 -2 3 7 11 14 15 15 14 13 13 12 15 20 19 16 14 13 13 12 10 8 5 2 2 -2 -7 -6 -3 0 2 2 3 4 4 7 7 7 8 8 8 10 8 8 9 8 10 9 9 11 11
5 6 6 5 4 4 4 3 3 3 3 2 3 5 6 5 4 5 5 5 4 5 5 4 5 6 8 10 11 13 19 23 23 22 17 10 5 0 -3 -3 -2 -1 2 7 12 18 22 20 16 14 12 8 8 11 15 19 21 19 13 4 -2 -3 -4 -5 -5 -3 1 3 4 5 7 10 11 9 9 9 7 7 8 9 11 12 12 12 11 11 11 11
3 5 6 6 5 4 3 4 3 3 3 2 2 3 4 5 5 4 5 5 4 5 7 4 5 5 3 5 8 7 10 14 16 19 22 20 18 17 14 8 3 -0 -3 -4 -2 2 6 12 17 18 17 16 15 13 14 13 13 15 15 13 11 10 9 9 8 6 6 7 7 7 8 9 9 9 10 10 10 13 13 14 15 15 14 14 14 15 15 14
3 4 5 6 6 5 4 4 4 3 3 3 2 2 2 4 6 4 4 6 4 5 7 6 5 6 4 3 4 3 5 9 11 12 14 15 16 19 22 21 18 15 13 11 10 7 0 -2 2 5 7 12 15 15 15 15 15 16 15 16 18 19 18 19 18 16 14 12 11 11 12 13 12 11 12 13 13 13 12 12 11 9 10 10 10 10 9 9
4 3 4 5 5 7 6 5 4 3 4 3 2 2 1 2 5 5 3 4 6 5 5 7 6 6 6 7 5 3 4 5 6 8 9 10 11 12 14 17 19 18 17 18 21 22 18 11 6 2 0 -0 1 2 4 4 6 9 10 11 12 12 13 14 14 14 15 14 14 13 12 12 10 9 9 9 8 6 5 5 5 6 8 9 9 11 13 15
5 4 5 4 4 6 7 6 5 3 3 3 3 3 3 1 2 4 3 3 5 5 4 6 7 6 6 7 6 5 6 5 4 4 5 6 8 9 9 10 13 14 14 14 15 17 20 21 18 17 16 14 11 8 7 5 4 3 1 0 1 0 0 1 0 1 1 1 2 2 2 3 3 4 5 6 7 10 11 13 14 17 19 20 21 21 22 22
Height
5740 5738 5736 5735 5733 5731 5730 5729 5728 5726 5725 5724 5722 5721 5720 5719 5717 5716 5715 5714 5713 5713 5712 5711 5711 5711 5711 5710 5710 5709 5708 5709 5710 5711 5712 5712 5713 5715 5716 5718 5720 5722 5723 5725 5728 5729 5731 5734 5737 5739 5741 5742 5743 5746 5748 5750 5752 5754 5756 5759 5766 5773 5779 5784 5789 5792 5796 5798 5796 5796 5798 5801 5805 5808 5810 5812 5814 5817 5819 5822 5824 5826 5828 5830 5831 5831 5832 5834
5736 5734 5732 5730 5728 5727 5725 5724 5723 5721 5720 5718 5717 5716 5714 5713 5712 5710 5709 5708 5707 5706 5705 5704 5704 5704 5703 5703 5703 5701 5700 5702 5702 5703 5704 5704 5706 5708 5709 5710 5712 5714 5716 5718 5720 5722 5724 5727 5731 5733 5734 5735 5738 5740 5742 5744 5746 5748 5751 5755 5763 5771 5777 5781 5785 5788 5791 5792 5792 5793 5794 5797 5801 5805 5808 5809 5811 5814 5816 5818 5821 5823 5826 5827 5828 5828 5829 5831
5732 5730 5728 5726 5724 5722 5721 5719 5718 5716 5715 5713 5712 5710 5709 5707 5706 5704 5703 5701 5700 5699 5698 5697 5697 5696 5696 5696 5694 5692 5692 5693 5694 5694 5695 5696 5698 5700 5701 5703 5704 5706 5708 5711 5713 5715 5717 5720 5723 5726 5728 5729 5732 5734 5736 5739 5740 5742 5746 5751 5760 5768 5771 5775 5779 5782 5784 5787 5788 5789 5790 5793 5797 5801 5804 5807 5808 5810 5812 5815 5818 5820 5823 5824 5825 5825 5826 5827
5728 5726 5724 5722 5720 5718 5717 5715 5713 5711 5710 5708 5707 5705 5703 5702 5700 5698 5696 5695 5693 5692 5691 5690 5689 5689 5688 5688 5686 5684 5684 5684 5685 5686 5686 5688 5690 5692 5693 5694 5696 5697 5700 5702 5705 5707 5709 5712 5715 5718 5720 5722 5725 5728 5731 5733 5734 5736 5741 5748 5757 5762 5765 5770 5773 5776 5778 5782 5783 5785 5787 5789 5792 5796 5800 5804 5806 5808 5809 5812 5815 5817 5819 5821 5821 5822 5822 5824
5724 5722 5720 5718 5716 5714 5712 5710 5708 5707 5705 5703 5701 5700 5697 5696 5694 5692 5690 5688 5687 5684 5683 5683 5682 5681 5680 5680 5677 5675 5675 5675 5676 5677 5678 5680 5681 5682 5683 5684 5686 5688 5690 5693 5696 5699 5701 5704 5707 5710 5713 5715 5718 5721 5725 5726 5727 5731 5737 5745 5751 5755 5760 5764 5766 5770 5773 5776 5779 5782 5784 5785 5788 5792 5795 5799 5803 5805 5807 5809 5811 5813 5815 5817 5818 5819 5820 5822
5720 5718 5715 5713 5711 5709 5707 5705 5704 5702 5700 5698 5696 5694 5692 5690 5687 5685 5683 5682 5680 5678 5676 5675 5674 5673 5672 5671 5668 5667 5666 5664 5666 5668 5669 5670 5670 5671 5671 5673 5676 5678 5681 5684 5687 5690 5693 5696 5699 5701 5705 5709 5711 5715 5719 5718 5719 5725 5733 5740 5745 5749 5753 5756 5760 5765 5769 5772 5775 5778 5780 5782 5785 5788 5791 5795 5799 5801 5803 5805 5808 5810 5812 5814 5817 5818 5819 5821
5716 5713 5711 5709 5707 5705 5703 5700 5699 5697 5695 5692 5690 5688 5686 5684 5681 5679 5677 5675 5673 5670 5669 5667 5666 5665 5663 5662 5659 5658 5657 5655 5656 5658 5658 5659 5659 5659 5661 5664 5666 5668 5670 5674 5677 5680 5683 5686 5690 5693 5697 5701 5703 5707 5710 5710 5713 5720 5728 5735 5740 5743 5745 5750 5756 5760 5764 5767 5770 5773 5777 5779 5781 5785 5788 5791 5795 5797 5800 5802 5804 5808 5810 5812 5815 5816 5818 5819
5712 5709 5707 5705 5702 5700 5698 5696 5694 5692 5690 5687 5685 5683 5680 5678 5676 5673 5670 5668 5665 5663 5661 5659 5658 5656 5654 5652 5650 5649 5647 5645 5646 5647 5648 5648 5648 5649 5651 5653 5655 5657 5660 5663 5666 5670 5674 5677 5680 5685 5689 5692 5695 5699 5702 5704 5707 5714 5723 5729 5733 5736 5740 5745 5750 5754 5759 5762 5765 5769 5772 5776 5779 5783 5785 5788 5792 5794 5796 5799 5801 5804 5807 5809 5811 5813 5816 5817
5708 5705 5703 5700 5698 5696 5694 5691 5689 5687 5685 5683 5680 5678 5675 5673 5670 5667 5664 5661 5658 5655 5653 5651 5649 5647 5644 5642 5641 5639 5636 5636 5637 5636 5637 5636 5636 5638 5640 5641 5643 5646 5649 5652 5655 5659 5663 5666 5670 5675 5680 5682 5686 5692 5694 5696 5701 5708 5716 5722 5726 5730 5734 5738 5743 5748 5753 5757 5762 5764 5768 5773 5777 5779 5781 5783 5788 5790 5792 5795 5798 5801 5804 5806 5807 5809 5812 5814
5704 5701 5699 5696 5694 5692 5689 5687 5685 5683 5681 5678 5676 5673 5670 5667 5664 5660 5657 5653 5650 5647 5644 5642 5640 5637 5635 5632 5630 5629 5627 5628 5627 5626 5625 5625 5625 5627 5628 5629 5632 5635 5637 5640 5644 5648 5652 5655 5659 5665 5670 5673 5676 5682 5685 5690 5696 5702 5709 5714 5719 5724 5728 5732 5736 5742 5747 5753 5757 5760 5765 5770 5772 5775 5776 5778 5782 5786 5789 5792 5795 5797 5800 5802 5803 5805 5808 5811
5701 5698 5695 5692 5690 5688 5686 5683 5681 5679 5676 5674 5671 5668 5664 5661 5657 5654 5650 5646 5642 5639 5637 5634 5631 5628 5626 5623 5620 5620 5619 5618 5618 5616 5615 5615 5615 5615 5616 5618 5620 5623 5625 5628 5631 5635 5639 5643 5648 5654 5659 5661 5666 5673 5677 5682 5689 5695 5701 5707 5713 5717 5721 5726 5730 5736 5742 5747 5752 5757 5762 5765 5767 5770 5772 5774 5777 5781 5785 5787 5791 5793 5795 5798 5800 5802 5804 5807
5698 5695 5692 5689 5687 5685 5682 5680 5677 5675 5672 5670 5666 5663 5659 5655 5652 5648 5643 5639 5635 5632 5629 5626 5623 5620 5617 5615 5613 5613 5611 5610 5609 5607 5605 5605 5605 5605 5606 5607 5609 5612 5614 5616 5619 5623 5627 5631 5636 5642 5646 5649 5658 5664 5666 5674 5681 5688 5693 5699 5706 5710 5714 5719 5724 5731 5736 5742 5747 5753 5758 5760 5762 5765 5767 5770 5772 5776 5780 5783 5787 5789 5791 5795 5797 5799 5801 5803
5695 5692 5689 5687 5684 5682 5679 5677 5674 5671 5668 5665 5661 5657 5653 5649 5645 5640 5635 5630 5626 5623 5620 5617 5614 5612 5610 5608 5606 5606 5604 5602 5601 5599 5597 5598 5597 5597 5597 5599 5601 5603 5605 5607 5609 5612 5616 5619 5623 5629 5633 5639 5648 5651 5656 5667 5673 5678 5684 5691 5698 5700 5705 5713 5719 5726 5731 5737 5743 5749 5751 5752 5754 5758 5761 5764 5767 5771 5775 5779 5782 5785 5788 5791 5794 5796 5798 5800
5693 5689 5687 5684 5681 5679 5676 5673 5670 5667 5664 5660 5655 5651 5647 5642 5637 5632 5627 5623 5619 5616 5613 5611 5608 5606 5604 5602 5601 5599 5597 5595 5593 5592 5592 5591 5590 5590 5592 5593 5595 5597 5598 5600 5603 5605 5608 5610 5613 5617 5622 5629 5635 5640 5649 5658 5663 5670 5676 5682 5688 5691 5700 5709 5714 5721 5726 5731 5738 5743 5743 5743 5746 5751 5755 5759 5763 5767 5771 5775 5778 5781 5784 5787 5790 5792 5794 5797
5691 5688 5684 5682 5679 5676 5673 5670 5666 5663 5659 5655 5650 5646 5642 5638 5634 5629 5624 5619 5615 5612 5610 5607 5605 5603 5600 5598 5595 5593 5591 5589 5588 5587 5586 5586 5585 5586 5587 5589 5591 5593 5594 5596 5598 5601 5602 5604 5606 5609 5613 5618 5623 5631 5639 5646 5652 5660 5666 5672 5679 5687 5698 5705 5708 5715 5721 5726 5733 5735 5734 5736 5742 5748 5752 5756 5760 5764 5768 5771 5774 5777 5781 5784 5787 5788 5791 5793
5690 5686 5683 5680 5677 5674 5671 5667 5663 5659 5656 5652 5648 5644 5641 5637 5633 5628 5624 5619 5614 5611 5608 5605 5602 5600 5597 5594 5591 5588 5586 5584 5583 5582 5582 5582 5582 5583 5584 5585 5587 5589 5591 5592 5594 5596 5598 5599 5601 5602 5605 5610 5615 5622 5628 5634 5642 5650 5657 5665 5674 5683 5692 5697 5702 5710 5717 5724 5727 5727 5728 5732 5738 5744 5749 5752 5756 5760 5765 5769 5772 5775 5778 5781 5783 5785 5788 5790
5688 5685 5682 5678 5675 5672 5669 5665 5661 5657 5653 5650 5646 5643 5640 5636 5633 5628 5624 5619 5615 5611 5607 5604 5601 5598 5595 5592 5588 5585 5582 5580 5579 5579 5578 5578 5579 5580 5581 5582 5584 5586 5587 5589 5590 5592 5593 5594 5596 5597 5600 5603 5607 5613 5617 5623 5633 5642 5651 5660 5669 5678 5686 5691 5697 5704 5710 5717 5719 5719 5724 5730 5735 5739 5745 5749 5753 5757 5762 5766 5769 5772 5775 5778 5780 5783 5785 5787
5687 5684 5680 5677 5674 5670 5667 5663 5659 5655 5651 5648 5645 5643 5640 5636 5632 5628 5623 5619 5614 5611 5607 5603 5600 5596 5593 5590 5586 5583 5580 5578 5576 5575 5575 5575 5576 5576 5578 5579 5581 5582 5584 5585 5587 5588 5589 5590 5592 5593 5595 5597 5601 5605 5609 5617 5629 5638 5645 5654 5664 5672 5680 5686 5691 5695 5702 5708 5712 5715 5720 5726 5731 5736 5741 5745 5750 5754 5758 5763 5766 5769 5772 5775 5777 5780 5783 5785
5687 5683 5679 5676 5672 5668 5665 5660 5656 5653 5649 5647 5645 5643 5639 5635 5631 5626 5622 5617 5613 5609 5606 5602 5598 5595 5591 5588 5585 5582 5579 5576 5574 5573 5572 5573 5573 5574 5575 5576 5578 5579 5581 5582 5583 5585 5586 5587 5588 5590 5592 5595 5598 5602 5607 5617 5626 5633 5638 5648 5659 5667 5674 5680 5683 5689 5697 5703 5707 5711 5715 5722 5727 5732 5738 5742 5747 5752 5755 5759 5763 5766 5769 5772 5774 5777 5780 5782
5686 5682 5678 5675 5671 5667 5663 5658 5654 5652 5649 5647 5645 5642 5638 5634 5629 5625 5620 5616 5612 5608 5604 5601 5597 5593 5590 5587 5584 5581 5578 5575 5572 5571 5570 5570 5571 5571 5572 5573 5575 5576 5578 5579 5580 5581 5582 5583 5585 5589 5591 5593 5596 5599 5606 5614 5621 5628 5634 5643 5655 5663 5669 5674 5678 5684 5693 5699 5702 5705 5711 5718 5724 5729 5734 5739 5744 5749 5752 5755 5759 5762 5765 5768 5770 5773 5776 5779
5685 5681 5678 5674 5670 5666 5661 5657 5654 5651 5649 5647 5645 5641 5637 5633 5628 5623 5619 5614 5611 5607 5603 5599 5596 5592 5589 5586 5583 5580 5577 5575 5572 5570 5569 5568 5568 5569 5569 5571 5572 5574 5575 5576 5577 5578 5579 5580 5584 5587 5588 5590 5592 5596 5602 5609 5618 5625 5632 5642 5654 5659 5663 5669 5675 5681 5690 5696 5698 5702 5709 5715 5720 5725 5731 5737 5741 5745 5749 5752 5755 5759 5762 5764 5767 5770 5773 5776
5685 5681 5677 5673 5669 5664 5660 5656 5654 5651 5649 5647 5644 5640 5636 5631 5627 5622 5617 5613 5609 5605 5602 5598 5595 5591 5588 5585 5582 5579 5576 5574 5572 5570 5568 5567 5567 5567 5568 5569 5570 5571 5572 5573 5574 5575 5576 5579 5582 5584 5584 5586 5589 5593 5598 5606 5616 5622 5629 5640 5650 5655 5659 5665 5671 5677 5685 5690 5693 5700 5708 5712 5718 5722 5727 5733 5737 5741 5745 5749 5752 5756 5759 5761 5764 5767 5770 5773
5686 5681 5677 5673 5668 5664 5659 5656 5654 5652 5649 5646 5643 5639 5635 5630 5626 5621 5616 5612 5608 5604 5600 5597 5594 5590 5587 5584 5581 5579 5576 5573 5571 5570 5568 5567 5566 5566 5566 5567 5568 5569 5570 5570 5571 5572 5574 5577 5579 5579 5580 5583 5586 5590 5596 5603 5612 5619 5626 5636 5644 5651 5657 5662 5667 5673 5681 5687 5692 5700 5707 5710 5715 5719 5723 5728 5733 5737 5741 5745 5749 5753 5756 5758 5761 5764 5767 5770
5686 5682 5677 5673 5668 5664 5660 5657 5654 5652 5649 5646 5643 5639 5634 5630 5625 5621 5616 5611 5607 5603 5599 5596 5593 5590 5586 5583 5580 5578 5576 5573 5571 5569 5568 5566 5566 5565 5565 5566 5566 5567 5567 5568 5568 5569 5571 5573 5574 5575 5577 5580 5583 5588 5594 5601 5610 5618 5624 5632 5640 5648 5655 5659 5666 5673 5679 5684 5690 5698 5704 5706 5710 5715 5720 5725 5729 5733 5738 5742 5747 5750 5753 5756 5758 5761 5764 5766
5687 5682 5678 5673 5669 5664 5660 5657 5655 5652 5649 5646 5643 5639 5634 5630 5625 5621 5616 5611 5607 5603 5599 5596 5592 5589 5585 5582 5580 5577 5575 5572 5570 5569 5567 5566 5565 5564 5564 5564 5564 5565 5565 5565 5565 5566 5568 5568 5570 5572 5574 5578 5582 5586 5593 5601 5610 5617 5623 5630 5637 5646 5654 5660 5666 5672 5676 5679 5685 5693 5697 5700 5706 5712 5717 5722 5726 5730 5735 5740 5744 5748 5751 5753 5756 5758 5760 5762
5687 5683 5679 5674 5670 5665 5661 5658 5655 5652 5650 5646 5643 5639 5634 5630 5626 5621 5616 5612 5607 5603 5599 5595 5592 5588 5585 5582 5579 5576 5574 5572 5570 5568 5566 5565 5564 5563 5563 5563 5563 5563 5563 5563 5563 5564 5564 5565 5567 5569 5572 5576 5580 5586 5593 5600 5608 5614 5622 5630 5637 5644 5652 5659 5664 5669 5674 5678 5684 5689 5692 5696 5703 5709 5714 5718 5723 5728 5732 5737 5741 5744 5747 5749 5752 5754 5756 5758
5688 5684 5679 5675 5671 5666 5662 5658 5655 5653 5650 5647 5643 5639 5635 5631 5626 5622 5617 5612 5608 5604 5600 5595 5592 5588 5585 5582 5579 5576 5573 5571 5569 5567 5566 5565 5564 5563 5562 5561 5561 5561 5561 5561 5562 5562 5563 5563 5565 5568 5571 5575 5579 5586 5593 5600 5607 5614 5622 5630 5638 5645 5652 5659 5664 5668 5673 5679 5684 5687 5691 5697 5702 5706 5711 5715 5720 5725 5730 5733 5737 5740 5743 5745 5748 5750 5752 5754
5690 5685 5680 5676 5672 5667 5663 5659 5656 5653 5650 5647 5644 5640 5636 5632 5627 5623 5618 5614 5610 5605 5600 5596 5592 5589 5585 5582 5578 5575 5573 5570 5568 5566 5565 5564 5563 5562 5561 5560 5560 5560 5560 5560 5561 5562 5562 5562 5565 5568 5571 5576 5582 5588 5595 5601 5609 5617 5625 5632 5640 5648 5653 5659 5664 5668 5673 5679 5682 5685 5690 5694 5698 5703 5709 5712 5717 5722 5727 5731 5734 5736 5739 5742 5743 5746 5748 5749
5692 5686 5681 5677 5673 5668 5664 5660 5656 5654 5651 5648 5644 5641 5637 5633 5629 5624 5619 5615 5611 5606 5601 5597 5593 5589 5585 5582 5578 5576 5573 5571 5568 5566 5564 5563 5563 5562 5560 5559 5559 5559 5559 5559 5560 5561 5561 5562 5565 5567 5572 5578 5584 5590 5596 5604 5613 5619 5627 5634 5640 5646 5651 5657 5662 5667 5673 5677 5679 5683 5687 5691 5696 5702 5706 5710 5715 5721 5725 5728 5730 5733 5736 5739 5740 5743 5745 5745
5694 5688 5683 5678 5674 5669 5665 5661 5657 5655 5652 5649 5645 5642 5638 5634 5630 5626 5622 5617 5612 5607 5603 5599 5594 5589 5586 5583 5580 5577 5575 5572 5569 5567 5565 5564 5563 5562 5560 5559 5558 5558 5558 5558 5559 5560 5561 5563 5565 5569 5573 5578 5583 5589 5596 5605 5614 5620 5627 5633 5639 5644 5649 5654 5659 5665 5669 5673 5677 5682 5686 5691 5696 5701 5705 5710 5715 5719 5722 5724 5726 5729 5733 5735 5737 5738 5740 5742
5696 5691 5686 5680 5676 5671 5667 5662 5659 5656 5653 5650 5646 5643 5639 5635 5632 5628 5624 5620 5615 5610 5605 5600 5594 5590 5587 5584 5582 5579 5576 5573 5571 5568 5565 5564 5564 5562 5560 5559 5559 5558 5557 5558 5558 5559 5561 5563 5566 5570 5574 5577 5582 5589 5597 5605 5613 5620 5627 5633 5638 5644 5649 5652 5656 5659 5662 5667 5674 5679 5684 5688 5693 5698 5703 5707 5711 5714 5717 5720 5723 5725 5728 5730 5731 5733 5736 5738
5698 5693 5688 5683 5678 5673 5669 5664 5660 5657 5654 5651 5647 5644 5641 5637 5634 5630 5627 5622 5617 5612 5607 5602 5597 5592 5588 5586 5583 5581 5578 5575 5573 5569 5566 5565 5564 5563 5562 5561 5560 5558 5558 5559 5559 5560 5562 5564 5567 5571 5574 5579 5585 5591 5598 5606 5613 5620 5626 5632 5638 5643 5647 5650 5653 5656 5659 5665 5672 5676 5680 5684 5689 5695 5699 5702 5707 5710 5714 5718 5720 5722 5725 5726 5727 5730 5732 5735
5700 5695 5691 5686 5681 5676 5672 5667 5663 5659 5656 5652 5649 5646 5643 5639 5635 5633 5629 5624 5620 5615 5610 5605 5600 5595 5590 5587 5584 5582 5580 5577 5574 5571 5568 5566 5565 5564 5564 5563 5561 5560 5560 5561 5562 5563 5565 5567 5570 5574 5577 5583 5589 5595 5602 5608 5614 5620 5626 5631 5638 5643 5646 5649 5652 5656 5661 5667 5672 5675 5678 5681 5687 5693 5696 5700 5705 5708 5712 5715 5718 5721 5723 5725 5726 5727 5730 5732
5702 5697 5693 5689 5685 5680 5675 5669 5665 5661 5658 5654 5651 5649 5644 5640 5637 5635 5631 5627 5622 5618 5613 5608 5603 5597 5592 5589 5586 5583 5581 5579 5576 5573 5571 5569 5568 5566 5566 5565 5564 5563 5563 5564 5566 5567 5569 5572 5574 5578 5583 5588 5594 5601 5608 5613 5618 5623 5628 5633 5640 5645 5648 5651 5656 5660 5664 5669 5672 5675 5677 5680 5686 5692 5695 5699 5703 5707 5710 5713 5717 5720 5722 5723 5725 5727 5729 5730
5704 5699 5696 5691 5687 5683 5678 5673 5668 5664 5661 5656 5653 5651 5645 5642 5640 5637 5633 5630 5626 5621 5616 5611 5606 5600 5595 5592 5588 5585 5583 5581 5578 5576 5575 5573 5571 5570 5569 5568 5567 5567 5567 5568 5570 5571 5574 5576 5579 5583 5588 5593 5600 5605 5611 5617 5622 5626 5631 5635 5640 5645 5649 5654 5659 5663 5668 5671 5673 5675 5678 5682 5688 5692 5695 5698 5702 5706 5709 5712 5715 5718 5720 5722 5724 5726 5727 5729
5705 5701 5698 5693 5690 5685 5681 5676 5671 5667 5664 5658 5655 5652 5648 5644 5642 5639 5636 5633 5629 5625 5620 5615 5610 5605 5600 5595 5592 5589 5586 5584 5582 5580 5578 5576 5575 5574 5573 5572 5571 5571 5572 5573 5574 5576 5579 5581 5584 5588 5593 5598 5605 5610 5615 5620 5626 5631 5635 5638 5642 5645 5650 5654 5657 5662 5667 5670 5673 5676 5680 5684 5688 5691 5695 5698 5702 5705 5708 5711 5714 5716 5718 5721 5723 5724 5726 5727
5707 5703 5700 5696 5692 5688 5684 5679 5674 5671 5666 5661 5658 5655 5650 5647 5645 5641 5639 5635 5632 5629 5624 5620 5615 5610 5605 5600 5596 5593 5590 5588 5586 5583 5582 5580 5579 5577 5576 5576 5576 5576 5577 5578 5579 5581 5584 5586 5589 5594 5599 5603 5608 5614 5618 5623 5629 5634 5639 5642 5645 5648 5651 5654 5657 5661 5665 5669 5673 5678 5682 5684 5686 5691 5696 5699 5702 5705 5708 5710 5712 5715 5717 5719 5721 5722 5724 5725
5708 5705 5702 5698 5694 5690 5687 5682 5678 5674 5669 5664 5662 5658 5653 5649 5647 5644 5641 5638 5635 5632 5628 5625 5620 5615 5611 5606 5601 5597 5595 5593 5590 5588 5586 5583 5582 5581 5580 5580 5580 5581 5582 5583 5584 5586 5589 5591 5594 5599 5604 5608 5613 5617 5620 5626 5631 5636 5641 5645 5648 5651 5653 5656 5659 5662 5666 5669 5674 5678 5681 5683 5686 5691 5696 5699 5702 5704 5706 5708 5711 5713 5715 5717 5719 5720 5722 5723
5709 5706 5703 5700 5696 5692 5689 5685 5682 5678 5672 5668 5666 5661 5655 5652 5649 5646 5644 5641 5638 5635 5632 5628 5624 5620 5616 5612 5607 5603 5600 5598 5595 5593 5591 5587 5586 5585 5584 5584 5584 5584 5586 5587 5589 5591 5595 5598 5599 5603 5608 5612 5617 5621 5624 5629 5634 5638 5643 5647 5650 5653 5655 5658 5660 5663 5666 5670 5674 5677 5680 5683 5687 5691 5694 5696 5699 5701 5703 5706 5708 5710 5712 5715 5717 5718 5719 5720
5710 5707 5705 5702 5698 5694 5691 5688 5685 5680 5676 5673 5670 5664 5659 5656 5652 5649 5646 5643 5641 5638 5635 5632 5629 5625 5621 5617 5614 5610 5606 5602 5600 5598 5595 5592 5590 5589 5588 5588 5588 5588 5588 5591 5594 5597 5601 5605 5606 5607 5612 5616 5620 5624 5628 5633 5637 5640 5644 5648 5651 5654 5656 5659 5661 5663 5666 5670 5673 5677 5680 5683 5687 5689 5691 5693 5696 5698 5701 5703 5705 5707 5710 5712 5714 5715 5716 5718
5711 5709 5706 5703 5700 5696 5693 5690 5687 5683 5680 5677 5673 5668 5664 5660 5655 5652 5649 5646 5644 5641 5639 5636 5633 5630 5626 5623 5620 5616 5612 5608 5605 5603 5600 5598 5596 5594 5593 5592 5592 5593 5594 5596 5599 5602 5605 5611 5613 5614 5616 5621 5624 5627 5631 5636 5639 5641 5645 5648 5651 5653 5656 5658 5660 5663 5666 5669 5672 5676 5679 5682 5685 5687 5690 5692 5694 5697 5699 5701 5703 5705 5707 5709 5711 5712 5713 5715
5713 5709 5707 5704 5701 5698 5695 5692 5689 5686 5683 5680 5676 5672 5669 5664 5660 5656 5652 5649 5646 5644 5641 5639 5637 5634 5631 5628 5625 5622 5619 5615 5612 5609 5606 5603 5602 5600 5599 5599 5599 5600 5601 5603 5606 5608 5610 5615 5618 5619 5621 5625 5628 5630 5633 5637 5639 5642 5646 5649 5651 5653 5656 5659 5661 5664 5667 5670 5672 5675 5678 5680 5683 5686 5689 5691 5693 5695 5697 5700 5702 5703 5705 5707 5708 5709 5711 5713
5714 5711 5708 5705 5703 5700 5697 5695 5692 5688 5685 5682 5679 5676 5672 5669 5665 5660 5656 5653 5650 5647 5644 5642 5640 5638 5636 5633 5631 5628 5625 5622 5619 5616 5613 5611 5609 5607 5606 5606 5606 5607 5608 5610 5612 5614 5617 5621 5623 5624 5625 5628 5631 5633 5635 5638 5641 5644 5647 5650 5652 5654 5657 5660 5662 5665 5668 5670 5673 5675 5678 5680 5683 5685 5687 5689 5692 5694 5696 5698 5700 5701 5703 5704 5705 5706 5708 5710
5715 5712 5709 5706 5704 5701 5699 5697 5694 5690 5687 5684 5681 5678 5676 5673 5669 5665 5661 5657 5654 5651 5648 5645 5643 5641 5639 5637 5635 5634 5631 5628 5626 5623 5621 5619 5616 5615 5614 5613 5613 5614 5615 5617 5619 5621 5623 5627 5630 5631 5631 5632 5634 5636 5638 5640 5643 5646 5649 5651 5653 5656 5658 5660 5663 5665 5667 5670 5673 5675 5677 5680 5682 5684 5686 5688 5690 5692 5694 5696 5697 5699 5700 5701 5703 5704 5705 5707
5715 5713 5710 5707 5705 5702 5700 5698 5696 5693 5690 5687 5684 5681 5678 5675 5672 5669 5666 5662 5659 5655 5652 5649 5646 5644 5642 5640 5639 5638 5636 5634 5632 5630 5627 5626 5624 5622 5621 5621 5620 5620 5622 5623 5625 5627 5629 5632 5634 5636 5638 5639 5640 5641 5643 5645 5647 5649 5651 5653 5655 5657 5659 5661 5663 5665 5667 5669 5672 5674 5676 5678 5680 5683 5685 5687 5688 5690 5692 5693 5695 5696 5697 5699 5700 5701 5702 5703
5715 5713 5711 5708 5705 5703 5701 5699 5697 5695 5692 5689 5686 5683 5680 5678 5675 5673 5670 5667 5664 5660 5657 5653 5651 5648 5646 5644 5643 5641 5640 5638 5637 5635 5633 5632 5631 5630 5629 5628 5627 5627 5627 5628 5630 5631 5634 5636 5637 5638 5641 5643 5645 5647 5648 5649 5651 5652 5654 5655 5657 5659 5661 5663 5664 5666 5668 5669 5671 5673 5675 5677 5679 5681 5682 5684 5686 5687 5689 5690 5692 5693 5694 5695 5696 5697 5699 5700
5715 5713 5711 5708 5706 5704 5701 5699 5698 5696 5694 5692 5689 5685 5682 5680 5678 5675 5673 5670 5668 5665 5662 5659 5656 5653 5651 5649 5646 5645 5643 5642 5641 5639 5638 5637 5636 5635 5635 5634 5634 5633 5633 5633 5634 5635 5636 5638 5639 5640 5642 5645 5647 5649 5650 5652 5653 5654 5655 5657 5658 5659 5661 5663 5664 5666 5667 5669 5671 5672 5674 5675 5677 5679 5680 5682 5683 5685 5686 5687 5688 5690 5691 5692 5693 5694 5695 5695
5715 5713 5711 5709 5707 5704 5702 5700 5698 5696 5695 5693 5691 5688 5685 5682 5680 5678 5675 5673 5671 5669 5666 5664 5661 5658 5655 5653 5651 5649 5648 5646 5644 5643 5642 5641 5640 5640 5640 5639 5639 5639 5639 5639 5639 5639 5639 5640 5642 5643 5644 5646 5648 5650 5651 5653 5654 5655 5656 5657 5658 5659 5660 5662 5663 5665 5666 5668 5669 5671 5672 5674 5675 5676 5677 5678 5680 5681 5682 5683 5685 5686 5687 5688 5689 5690 5690 5691
5715 5713 5711 5709 5707 5705 5703 5701 5699 5697 5695 5694 5693 5690 5688 5685 5682 5680 5677 5675 5673 5671 5669 5667 5665 5662 5660 5658 5656 5654 5652 5650 5649 5647 5645 5644 5644 5643 5643 5643 5643 5643 5643 5644 5644 5644 5644 5644 5645 5646 5647 5648 5649 5650 5652 5653 5655 5656 5657 5658 5659 5660 5661 5661 5663 5664 5665 5666 5667 5669 5670 5671 5672 5674 5675 5676 5677 5678 5679 5680 5681 5682 5683 5684 5685 5686 5686 5687
5714 5712 5711 5709 5707 5705 5703 5701 5699 5697 5696 5694 5693 5692 5690 5688 5685 5682 5680 5677 5675 5673 5672 5670 5668 5666 5664 5662 5660 5659 5657 5655 5653 5652 5650 5649 5647 5646 5646 5645 5645 5645 5645 5646 5647 5648 5648 5649 5649 5649 5650 5650 5651 5652 5652 5654 5655 5656 5657 5658 5658 5659 5660 5661 5662 5663 5664 5665 5666 5667 5668 5669 5670 5671 5673 5674 5675 5675 5676 5677 5678 5679 5679 5680 5681 5682 5682 5683
5712 5711 5710 5708 5707 5705 5703 5701 5699 5698 5696 5694 5693 5692 5691 5689 5687 5685 5683 5680 5678 5676 5674 5672 5671 5669 5668 5666 5664 5663 5661 5659 5658 5656 5654 5653 5652 5651 5650 5649 5648 5647 5647 5647 5648 5649 5650 5651 5651 5652 5652 5653 5653 5654 5654 5655 5655 5656 5657 5657 5658 5658 5659 5660 5661 5662 5663 5663 5664 5666 5667 5667 5668 5669 5670 5671 5672 5673 5673 5674 5675 5676 5676 5677 5677 5678 5678 5679
5710 5710 5709 5707 5706 5704 5703 5701 5699 5697 5696 5694 5692 5691 5691 5690 5688 5687 5685 5683 5680 5678 5676 5674 5673 5672 5670 5669 5667 5666 5664 5662 5661 5660 5658 5657 5656 5655 5654 5653 5652 5651 5650 5650 5650 5650 5651 5651 5652 5653 5653 5654 5654 5655 5655 5655 5656 5656 5657 5657 5658 5658 5659 5659 5660 5661 5661 5662 5663 5664 5665 5665 5666 5667 5668 5669 5669 5670 5670 5671 5672 5672 5673 5674 5674 5674 5675 5675